Weather at Strängnäs Air Base [CLOSED]

Public forecast

Using degrees Celsius for public forecast. Weather courtesy of forecast.io.

Closest aviation weather report (METAR) to Strängnäs Air Base

Closest report is Stockholm Västerås Airport, 22.0 nm (40.8 km) NW. Retrieved 2022/08/12 02:20 UTC (41 seconds ago):

ESOW 120220Z AUTO 19003KT 120V240 9999 NCD 15/11 Q1021

Closest aviation forecast (TAF) to Strängnäs Air Base

Forecast is more than 12 hours old.

Closest forecast is Stockholm Västerås Airport, 22.0 nm (40.8 km) NW. Retrieved 2021-06-01 03:36 UTC (1 year ago):

TAF TAF ESOW 190230Z 1903/1915 27005KT CAVOK